Regional Weather Roundup
Issued by NWS

Home | Current Version | Previous Version | Graphics & Text | Print | Product List | Glossary Off
Versions: 1 2 3 4 5 6 7 8 9 10 11 12 13 14 15 16 17 18 19 20 21 22 23 24 25 26 27 28 29 30 31 32 33 34 35 36 37 38 39 40 41 42 43 44 45 46 47 48 49 50

000
ASUS43 KDMX 020104
RWRIA

WEATHER ROUNDUP FOR IOWA
NATIONAL WEATHER SERVICE DES MOINES IA
  ISSUED BY NWS QUAD CITIES IA IL
700 PM CST SUN FEB 01 2015

NOTE: "FAIR" INDICATES FEW OR NO CLOUDS BELOW 12,000 FEET WITH NO
SIGNIFICANT WEATHER AND/OR OBSTRUCTIONS TO VISIBILITY.

* - THESE STATIONS ARE NOT NWS STATIONS...THUS NOT UNDER NWS
QUALITY CONTROL.  THEY ALSO DO NOT REPORT WEATHER SUCH
AS PRECIPITATION OR FOG.

IAZ001>003-012>014-020>022-031>034-043>046-020200-
   NORTHWEST IOWA

CITY           SKY/WX    TMP DP  RH WIND       PRES   REMARKS
CARROLL *      CLOUDY    12   7  79 N20       30.19R WCI  -6
CHEROKEE *     PTCLDY    10   6  84 N13       30.24R WCI  -6
DENNISON *     CLOUDY    12   7  79 N14G21    30.20R WCI  -3
SIOUX CITY     CLOUDY     7   2  80 NW21      30.30R WCI -13
SPENCER        FAIR      12   3  67 N18       30.22R WCI  -6
$$

IAZ055>058-069>071-079>083-090>094-020200-
   SOUTHWEST IOWA

CITY           SKY/WX    TMP DP  RH WIND       PRES   REMARKS
ATLANTIC *     CLOUDY    14   9  79 N21G26    30.18R WCI  -4
AUDUBON *      CLOUDY    12   9  85 N15G21    30.18R WCI  -4
CLARINDA *     LGT SNOW  16  12  86 N21G33    30.19R WCI  -2
COUNCIL BLFS * HVY RAIN  10   7  85 NW21G28   30.22R WCI  -9
CRESTON *      CLOUDY    12   9  85 N24G35    30.13R FOG     WCI  -8
HARLAN *       CLOUDY    12  10  92 N20G29    30.24R WCI  -6
LAMONI         LGT SNOW  15  10  80 N21G29    30.08R WCI  -2
$$

IAZ047>049-059>061-072>074-084-020200-
   CENTRAL IOWA

CITY           SKY/WX    TMP DP  RH WIND       PRES   REMARKS
AMES           LGT SNOW  13   8  81 N17       30.14R WCI  -4
ANKENY *       LGT SNOW  14   9  79 N17G28    30.14R WCI  -3
BOONE *        CLOUDY    12   7  79 N16G23    30.13R WCI  -4
CHARITON *     LGT SNOW  16  12  86 N20G28    30.08R WCI  -1
DES MOINES     LGT SNOW  15   9  76 N18       30.13R BLWGSNOWWCI  -2
MARSHALLTOWN   LGT SNOW  13   9  84 N25G32    30.10R FOG     WCI  -7
PERRY *          N/A     13   9  83 N18       30.16R WCI  -4
$$

IAZ004>006-015-016-023>025-035-036-020200-
   NORTH CENTRAL IOWA

CITY           SKY/WX    TMP DP  RH WIND       PRES   REMARKS
ALGONA *       PTCLDY    10   7  85 N18G25    30.19R WCI  -8
CLARION *      PTCLDY    10   5  79 N12       30.16R WCI  -4
ESTHERVILLE    PTCLDY     9   3  77 N15       30.20R WCI  -8
FORT DODGE *   CLEAR     10   1  67 CALM      30.18R
MASON CITY     CLEAR     11   4  73 N20       30.15R WCI  -7
WEBSTER CITY * CLOUDY    12   9  85 N18       30.14R WCI  -5
IOWA FALLS *   CLOUDY    12   7  79 N20G28    30.13R WCI  -6
$$

IAZ007>011-017>019-026>030-037>042-050>054-066-020200-
   NORTHEAST IOWA

CITY           SKY/WX    TMP DP  RH WIND       PRES   REMARKS
CEDAR RAPIDS   LGT SNOW  14  11  87 N22       30.02R BLWGSNOWWCI  -4
CHARLES CITY * CLOUDY    12   5  73 N22G28    30.11R WCI  -7
CLINTON *      CLOUDY    14   9  79 N26G32    29.95R WCI  -6
DECORAH *      MOCLDY    12   5  73 N13G20    30.07R WCI  -3
DUBUQUE        LGT SNOW  11   6  81 N21G31    29.97R WCI  -8
WATERLOO       CLOUDY    13  10  88 N18       30.10R FOG     WCI  -4
$$

IAZ064-065-067-068-078-020200-
   EAST CENTRAL IOWA

CITY           SKY/WX    TMP DP  RH WIND       PRES   REMARKS
DAVENPORT      FOG       14  10  84 N25G33    29.94R VSB 1/2 WCI  -5
IOWA CITY      LGT SNOW  15  11  83 N17G28    30.03R FOG     WCI  -1
QUAD CITIES    LGT SNOW  16  11  80 N15G26    29.93R VSB 1   WCI   1
$$

IAZ062-063-075>077-085>089-095>099-020200-
   SOUTHEAST IOWA

CITY           SKY/WX    TMP DP  RH WIND       PRES   REMARKS
BURLINGTON     LGT SNOW  18  14  84 N22G33    29.93R FOG     WCI   1
FAIRFIELD *    LGT SNOW  18  12  79 N21G36    30.01R WCI   1
FORT MADISON * LGT SNOW  18  16  93 N24G32    29.94R WCI   0
KEOKUK *       LGT SNOW  19  16  86 N18G31    29.94R WCI   4
OTTUMWA        LGT SNOW  16  12  84 N22G31    30.04R FOG     WCI  -2
WASHINGTON *   LGT SNOW  18  18 100 N22G31    30.01R WCI   0
$$

ABBREVIATIONS USED IN REMARKS
   TC - TEMPERATURES IN CELSIUS
  WCI - WIND CHILL INDEX
   HX - HEAT INDEX
  VSB - VISIBILITY
$$



USA.gov is the U.S. government's official web portal to all federal, state and local government web resources and services.